星链-5350 (STARLINK-5350 )

导读 | 豆包AI

STARLINK-5350是美国SpaceX公司星链星座项目中的一颗低轨通信卫星,于北京时间2023年5月4日发射入轨。作为全球规模最大低轨卫星互联网星座的组成部分,它运行在约550公里的近地轨道,旨在为全球提供高速低延迟宽带通信服务,重点覆盖地面网络难以触及的偏远地区,同时也逐步拓展至应急通信、航空航海联网等多元应用场景。该卫星的成功发射进一步扩充了星链星座的在轨卫星数量,提升了星座的服务覆盖能力与网络稳定性。

基本信息
目录编号:
56419
目录名称:
STARLINK-5350
国际标识:
2023-061AX
轨道中心:
EARTH
卫星名称:
星链-5350
卫星全名:
星链-5350 (STARLINK-5350 )
卫星状态:
在轨 (已飞行1092 天)
发射日期:
2023-05-04 UTC
国别 :
美国 (US)
星等 :
--
轨道信息
数据来源 国际轨道数据
星历时间: 2026-04-30T09:50:07+0800
11小时前
查看轨道信息
半长轴: 6863.693km
偏心率: 0.0001553
轨道倾角: 43.003°
近地点辐角 254.799°
升交点赤经 256.810°
平近点角 105.269°
近地点: 484.49km
远地点: 486.622km
周期: 94.318分钟
每日圈数: 15.267434
详细信息
固有亮度:
5
最大亮度:
2.5
卫星平台:
Starlink v1.5
覆盖范围:
全球
运营商:
太空探索技术公司
运营商所在国:
美国
制造商(研发单位):
太空探索技术公司
制造商所在国:
美国
使用方式:
暂无
卫星简介
星链(Starlink)计划是由太空探索技术公司(SpaceX)提出的一个巨型低轨卫星互联网星座项目,计划在2019年至2024年间在太空搭建由约1.2万颗卫星组成的“星链”网络,其中1584颗将部署在地球上空550千米处的近地轨道,并从2020年开始工作。该卫星仍在工作。
2D轨道图
3D轨道图
轨道高度分析图
轨道倾角分析图
轨道综合分析图
查看轨道综合分析图